Location: Larkspur
(54.4391°N, 113.7691°W)
Time: 22:57:50
(UTC+00:00)

BUGSAT 1 - Visible Passes

Search period start: 29 November 2023 00:00
Search period end: 09 December 2023 00:00
Orbit: 537 x 588 km, 98.2° (Epoch: 29 November)

Date Brightness Start Highest point End Pass type
(mag) Time Alt. Az. Time Alt. Az. Time Alt. Az.
29 Nov ? 00:53:31 15° NNE 00:53:31 15° NNE 00:54:50 10° NNE visible
29 Nov ? 02:29:30 19° NNW 02:29:30 19° NNW 02:30:42 10° NNW visible
30 Nov ? 00:53:14 14° NNE 00:53:14 14° NNE 00:54:24 10° NNE visible
30 Nov ? 02:29:13 18° NNW 02:29:13 18° NNW 02:30:17 10° NNW visible
01 Dec ? 00:52:56 14° NNE 00:52:56 14° NNE 00:53:56 10° NNE visible
01 Dec ? 02:28:54 17° NNW 02:28:54 17° NNW 02:29:51 10° NNW visible
02 Dec ? 00:52:36 13° NNE 00:52:36 13° NNE 00:53:28 10° NNE visible
02 Dec ? 02:28:34 16° NNW 02:28:34 16° NNW 02:29:23 10° NNW visible
03 Dec ? 00:52:14 13° NNE 00:52:14 13° NNE 00:52:59 10° NNE visible
03 Dec ? 02:28:13 15° NNW 02:28:13 15° NNW 02:28:56 10° NNW visible
04 Dec ? 00:51:52 12° NNE 00:51:52 12° NNE 00:52:30 10° NNE visible
04 Dec ? 02:27:50 14° NNW 02:27:50 14° NNW 02:28:27 10° NNW visible
05 Dec ? 00:51:27 12° NNE 00:51:27 12° NNE 00:51:58 10° NNE visible
05 Dec ? 02:27:26 14° NNW 02:27:26 14° NNW 02:27:57 10° NNW visible
06 Dec ? 00:51:02 11° NNE 00:51:02 11° NNE 00:51:26 10° NNE visible
06 Dec ? 02:27:00 13° NNW 02:27:00 13° NNW 02:27:27 10° NNW visible
07 Dec ? 00:50:35 11° NNE 00:50:35 11° NNE 00:50:54 10° NNE visible
07 Dec ? 02:26:33 12° NNW 02:26:33 12° NNW 02:26:56 10° NNW visible
08 Dec ? 00:50:06 11° NNE 00:50:06 11° NNE 00:50:20 10° NNE visible
08 Dec ? 02:26:05 12° NNW 02:26:05 12° NNW 02:26:24 10° NNW visible
